SRMSAT

Last updated on Wed Sep 09 2026 00:02:45 GMT+0000 (Coordinated Universal Time)

1 37841U 11058D 26251.41558084 .00000368 00000+0 55785-4 0 9999 2 37841 19.9716 275.7000 0011922 40.5211 347.6488 14.11591137769596
UTC large
Height (km)
Speed (km/s)
/
Latitude / Longitude
Inclination (degrees)
Orbital Period (minutes)
Azimuth
Elevation
Range (km)
Doppler Factor

Next 0 passes for location: London (51.5072 / 0.1276)

No passes found over London.
SRMSAT